Estación de Santa María

Ultimos registro cada 15 minutos 66
Estación Fecha / Hora Temperatura Humedad Lluvia Velocidad Dirección Radiación Presion
66 Santa María 02-09-2026 16:15 24,8 38,6 0 1 299 495,6 934,5
65 Santa María 02-09-2026 16:00 24,1 42,8 0 1 293 513,1 934,5
64 Santa María 02-09-2026 15:45 24,9 43,1 0 0,5 299 530,6 934,4
63 Santa María 02-09-2026 15:30 24,6 42,6 0 0,5 254 579,4 934,6
62 Santa María 02-09-2026 15:15 23,8 41,7 0 0,5 270 641,9 934,5
61 Santa María 02-09-2026 15:00 23,6 44,4 0 0,5 286 675,6 934,7
60 Santa María 02-09-2026 14:45 23,9 43,2 0 0 278 628,1 934,9
59 Santa María 02-09-2026 14:30 23,4 42,7 0 0 278 733,1 935,2
58 Santa María 02-09-2026 14:15 22,9 44,5 0 0 268 515,6 935,2
57 Santa María 02-09-2026 14:00 22,3 44,8 0 0 277 649,4 935,3
56 Santa María 02-09-2026 13:45 23 48,4 0 0 264 569,4 935,6
55 Santa María 02-09-2026 13:30 21,5 47,4 0 0 256 494,4 935,7
54 Santa María 02-09-2026 13:15 21,5 51,2 0 0 331 646,9 935,8
53 Santa María 02-09-2026 13:00 21,4 54 0 0 215 383,1 935,9
52 Santa María 02-09-2026 12:45 20,1 58,7 0,4 0 271 485,6 936,3
51 Santa María 02-09-2026 12:30 19,3 61,7 0 0 267 450,6 936,3
50 Santa María 02-09-2026 12:15 19,2 59,9 0 0 279 450,6 936,4
49 Santa María 02-09-2026 12:00 19,1 62,1 0 0 302 343,1 936,2
48 Santa María 02-09-2026 11:45 19,1 62,4 0 0 299 574,4 936,5
47 Santa María 02-09-2026 11:30 18,4 64,4 0 0 270 344,4 936,7
46 Santa María 02-09-2026 11:15 18,1 64,1 0 0 264 378,1 936,7
45 Santa María 02-09-2026 11:00 17,9 65,3 0 0 261 344,4 936,4
44 Santa María 02-09-2026 10:45 17,5 65,9 0 0 275 329,4 936,5
43 Santa María 02-09-2026 10:30 17,4 64,4 0 0 240 349,4 936,6
42 Santa María 02-09-2026 10:15 16,8 67,6 0 0 117 366,9 936,5
41 Santa María 02-09-2026 10:00 16,7 68,4 0 0 25 358,1 936,5
40 Santa María 02-09-2026 09:45 16,6 62,8 0 0 14 429,4 936,6
39 Santa María 02-09-2026 09:30 15,3 68,3 0 0 53 270,6 936,6
38 Santa María 02-09-2026 09:15 14,2 72 0 0 60 206,9 936,7
37 Santa María 02-09-2026 09:00 13,1 76,2 0 0 60 198,1 936,7
36 Santa María 02-09-2026 08:45 11,8 81,3 0 0 60 123,1 936,5
35 Santa María 02-09-2026 08:30 10,7 84,1 0 0 60 100,6 936,3
34 Santa María 02-09-2026 08:15 9,8 85,6 0 0 60 50,6 935,9
33 Santa María 02-09-2026 08:00 9,7 84,6 0 0 63 68,1 935,7
32 Santa María 02-09-2026 07:45 9,9 83 0 0 73 30,6 935,5
31 Santa María 02-09-2026 07:30 9,7 84,2 0 0 73 28,1 935,4
30 Santa María 02-09-2026 07:15 9,9 84,9 0 0 73 6,9 935,4
29 Santa María 02-09-2026 07:00 10,4 84,1 0 0 73 1,9 935,3
28 Santa María 02-09-2026 06:45 9,2 89 0 0 73 0,6 935,4
27 Santa María 02-09-2026 06:30 9,1 87,7 0 0 73 0,6 935,5
26 Santa María 02-09-2026 06:15 9,9 85,4 0 0 73 0,6 935,4
25 Santa María 02-09-2026 06:00 10,1 86,5 0 0 73 0,6 935,6
24 Santa María 02-09-2026 05:45 10 85,3 0 0 73 0,6 935,5
23 Santa María 02-09-2026 05:30 10,6 84,2 0 0 73 0,6 935,5
22 Santa María 02-09-2026 05:15 10,4 85,6 0 0 73 0,6 935,5
21 Santa María 02-09-2026 05:00 10,5 84,9 0 0 73 0,6 935,6
20 Santa María 02-09-2026 04:45 10,4 85,5 0 0 73 0,6 935,7
19 Santa María 02-09-2026 04:30 11 82,4 0 0 73 0,6 935,7
18 Santa María 02-09-2026 04:15 11,2 81,5 0 0 73 0,6 935,7
17 Santa María 02-09-2026 04:00 11,5 80,7 0 0 73 0,6 935,7
16 Santa María 02-09-2026 03:45 12 78,9 0 0 73 0,6 935,7
15 Santa María 02-09-2026 03:30 12,2 78,6 0 0 77 0,6 935,6
14 Santa María 02-09-2026 03:15 12,2 78,7 0 0 74 0,6 935,8
13 Santa María 02-09-2026 03:00 11,3 82,8 0 0 74 0,6 935,8
12 Santa María 02-09-2026 02:45 11,8 81,1 0 0 74 0,6 935,7
11 Santa María 02-09-2026 02:30 12,5 78 0 0 74 0,6 935,6
10 Santa María 02-09-2026 02:15 12,8 77,1 0 0 73 0,6 935,6
9 Santa María 02-09-2026 02:00 12,8 75,5 0 0 72 0,6 935,5
8 Santa María 02-09-2026 01:45 12,7 77 0 0 53 0,6 935,7
7 Santa María 02-09-2026 01:30 12,8 78,5 0 0 13 0,6 935,5
6 Santa María 02-09-2026 01:15 12,8 76,7 0 0 44 0,6 935,6
5 Santa María 02-09-2026 01:00 13,1 76,8 0 0 56 0,6 935,4
4 Santa María 02-09-2026 00:45 13,2 75,9 0 0 56 0,6 935,3
3 Santa María 02-09-2026 00:30 13,4 74,7 0 0 56 0,6 935,5
2 Santa María 02-09-2026 00:15 13,5 75 0 0 56 0,6 935,8
1 Santa María 02-09-2026 00:00 14,1 74 0 0 56 0,6 935,9